When you browse on this site, cookies collect data to enhance your experience and personalize the content and advertising you see.
Visit our Privacy Policy to learn more. By continuing to use the site, you agree to this use of cookies and data.
  • In Schweiz
  • Länderverzeichnis
  • Für 7 Tage
  • Wassertemperatur
  • Satellitenkarten
  • Wetterkarte
  • Widgets
  • user-avatar
    Anmelden

    Stündliche Wetter Kabimas

    Heute, 23 Juli, Dienstag

    Zeit Temperatur Niederschläge Wind Luftdruck Luftfeuchtigkeit
    00:00 +28°C° 0 mm 3 m/S 758 mmHg 80%
    01:00 +28°C° 0 mm 2 m/S 758 mmHg 81%
    02:00 +28°C° 0 mm 2 m/S 757 mmHg 81%
    03:00 +27°C° 0 mm 2 m/S 757 mmHg 82%
    04:00 +27°C° 0 mm 3 m/S 757 mmHg 83%
    05:00 +28°C° 0.3 mm 3 m/S 757 mmHg 80%
    06:00 +28°C° 0.3 mm 3 m/S 758 mmHg 78%
    07:00 +29°C° 0.3 mm 3 m/S 758 mmHg 75%
    08:00 +31°C° 0.2 mm 3 m/S 758 mmHg 68%
    09:00 +33°C° 0.2 mm 3 m/S 758 mmHg 62%
    10:00 +35°C° 0.2 mm 3 m/S 758 mmHg 55%
    11:00 +36°C° 0 mm 3 m/S 758 mmHg 54%
    12:00 +36°C° 0 mm 3 m/S 757 mmHg 52%
    13:00 +37°C° 0 mm 3 m/S 757 mmHg 50%
    14:00 +36°C° 0.1 mm 2 m/S 756 mmHg 51%
    15:00 +36°C° 0.1 mm 2 m/S 756 mmHg 53%
    16:00 +34°C° 0.1 mm 1 m/S 755 mmHg 54%
    17:00 +34°C° 0.1 mm 2 m/S 756 mmHg 59%
    18:00 +31°C° 0.1 mm 2 m/S 756 mmHg 64%
    19:00 +30°C° 0.1 mm 3 m/S 757 mmHg 70%
    20:00 +30°C° 0 mm 3 m/S 757 mmHg 72%
    21:00 +29°C° 0 mm 3 m/S 758 mmHg 74%
    22:00 +29°C° 0 mm 3 m/S 759 mmHg 76%
    23:00 +28°C° 0 mm 2 m/S 759 mmHg 77%

    Morgen, 24 Juli, Mittwoch

    Zeit Temperatur Niederschläge Wind Luftdruck Luftfeuchtigkeit
    00:00 +28°C° 0 mm 2 m/S 758 mmHg 78%
    01:00 +28°C° 0 mm 2 m/S 758 mmHg 79%
    02:00 +27°C° 0 mm 2 m/S 758 mmHg 77%
    03:00 +27°C° 0 mm 2 m/S 758 mmHg 76%
    04:00 +27°C° 0 mm 1 m/S 758 mmHg 75%
    05:00 +27°C° 0.1 mm 1 m/S 758 mmHg 73%
    06:00 +28°C° 0.1 mm 2 m/S 758 mmHg 71%
    07:00 +29°C° 0.1 mm 2 m/S 759 mmHg 69%
    08:00 +31°C° 0.1 mm 1 m/S 759 mmHg 61%
    09:00 +34°C° 0.1 mm 1 m/S 759 mmHg 54%
    10:00 +36°C° 0.1 mm 1 m/S 759 mmHg 47%
    11:00 +37°C° 0 mm 1 m/S 758 mmHg 45%
    12:00 +38°C° 0 mm 2 m/S 757 mmHg 44%
    13:00 +38°C° 0 mm 2 m/S 757 mmHg 43%
    14:00 +37°C° 0 mm 3 m/S 756 mmHg 46%
    15:00 +36°C° 0 mm 3 m/S 756 mmHg 50%
    16:00 +35°C° 0 mm 3 m/S 755 mmHg 53%
    17:00 +34°C° 0 mm 3 m/S 756 mmHg 58%
    18:00 +33°C° 0 mm 3 m/S 756 mmHg 63%
    19:00 +30°C° 0 mm 3 m/S 757 mmHg 67%
    20:00 +30°C° 0 mm 3 m/S 757 mmHg 69%
    21:00 +29°C° 0 mm 3 m/S 758 mmHg 71%
    22:00 +29°C° 0 mm 3 m/S 759 mmHg 73%
    23:00 +28°C° 0 mm 2 m/S 758 mmHg 73%

    übermorgen, 25 Juli, Donnerstag

    Zeit Temperatur Niederschläge Wind Luftdruck Luftfeuchtigkeit
    00:00 +28°C° 0 mm 2 m/S 758 mmHg 73%
    01:00 +27°C° 0 mm 2 m/S 757 mmHg 73%
    02:00 +27°C° 0 mm 2 m/S 757 mmHg 73%
    03:00 +27°C° 0 mm 2 m/S 757 mmHg 73%
    04:00 +26°C° 0 mm 2 m/S 758 mmHg 73%
    05:00 +27°C° 0 mm 2 m/S 758 mmHg 71%
    06:00 +28°C° 0 mm 2 m/S 758 mmHg 69%
    07:00 +28°C° 0 mm 1 m/S 758 mmHg 68%
    08:00 +31°C° 0 mm 1 m/S 758 mmHg 60%
    09:00 +33°C° 0 mm 1 m/S 759 mmHg 53%
    10:00 +36°C° 0 mm 1 m/S 759 mmHg 45%
    11:00 +36°C° 0 mm 1 m/S 758 mmHg 44%
    12:00 +37°C° 0 mm 2 m/S 757 mmHg 43%
    13:00 +38°C° 0 mm 2 m/S 756 mmHg 42%
    14:00 +37°C° 0 mm 3 m/S 756 mmHg 43%
    15:00 +37°C° 0 mm 4 m/S 756 mmHg 45%
    16:00 +36°C° 0 mm 5 m/S 755 mmHg 46%
    17:00 +35°C° 0 mm 5 m/S 756 mmHg 51%
    18:00 +33°C° 0 mm 6 m/S 756 mmHg 55%
    19:00 +32°C° 0 mm 6 m/S 757 mmHg 60%
    20:00 +30°C° 0 mm 6 m/S 757 mmHg 63%
    21:00 +29°C° 0 mm 5 m/S 758 mmHg 67%
    22:00 +29°C° 0 mm 5 m/S 759 mmHg 70%
    23:00 +28°C° 0 mm 4 m/S 758 mmHg 72%

    26 Juli, Freitag

    Zeit Temperatur Niederschläge Wind Luftdruck Luftfeuchtigkeit
    00:00 +28°C° 0 mm 3 m/S 758 mmHg 74%
    01:00 +27°C° 0 mm 3 m/S 757 mmHg 76%
    02:00 +27°C° 0.1 mm 3 m/S 757 mmHg 76%
    03:00 +27°C° 0.1 mm 3 m/S 757 mmHg 77%
    04:00 +26°C° 0.1 mm 3 m/S 757 mmHg 78%
    05:00 +27°C° 0.2 mm 3 m/S 758 mmHg 75%
    06:00 +28°C° 0.2 mm 3 m/S 758 mmHg 73%
    07:00 +29°C° 0.2 mm 3 m/S 758 mmHg 70%
    08:00 +31°C° 0.1 mm 3 m/S 758 mmHg 64%
    09:00 +34°C° 0.1 mm 3 m/S 759 mmHg 57%
    10:00 +36°C° 0.1 mm 3 m/S 759 mmHg 51%
    11:00 +36°C° 0.2 mm 3 m/S 758 mmHg 51%
    12:00 +36°C° 0.2 mm 3 m/S 757 mmHg 51%
    13:00 +36°C° 0.2 mm 3 m/S 757 mmHg 51%
    14:00 +36°C° 0.3 mm 3 m/S 756 mmHg 52%
    15:00 +36°C° 0.3 mm 3 m/S 756 mmHg 52%
    16:00 +35°C° 0.3 mm 3 m/S 756 mmHg 52%
    17:00 +34°C° 0.1 mm 3 m/S 756 mmHg 58%
    18:00 +31°C° 0.1 mm 3 m/S 757 mmHg 64%
    19:00 +30°C° 0.1 mm 4 m/S 758 mmHg 70%
    20:00 +29°C° 0 mm 3 m/S 758 mmHg 73%
    21:00 +29°C° 0 mm 3 m/S 759 mmHg 75%
    22:00 +28°C° 0 mm 2 m/S 759 mmHg 77%
    23:00 +28°C° 0 mm 2 m/S 759 mmHg 76%

    27 Juli, Samstag

    Zeit Temperatur Niederschläge Wind Luftdruck Luftfeuchtigkeit
    00:00 +28°C° 0 mm 1 m/S 759 mmHg 75%
    01:00 +28°C° 0 mm 1 m/S 758 mmHg 74%
    02:00 +28°C° 0 mm 1 m/S 758 mmHg 74%
    03:00 +28°C° 0 mm 1 m/S 758 mmHg 74%
    04:00 +27°C° 0 mm 2 m/S 758 mmHg 74%
    05:00 +28°C° 0 mm 2 m/S 758 mmHg 72%
    06:00 +28°C° 0 mm 2 m/S 759 mmHg 71%
    07:00 +28°C° 0 mm 2 m/S 759 mmHg 70%
    08:00 +31°C° 0 mm 2 m/S 760 mmHg 62%
    09:00 +34°C° 0 mm 2 m/S 760 mmHg 54%
    10:00 +36°C° 0 mm 1 m/S 760 mmHg 46%
    11:00 +37°C° 0 mm 2 m/S 759 mmHg 47%
    12:00 +37°C° 0 mm 3 m/S 758 mmHg 47%
    13:00 +37°C° 0 mm 4 m/S 758 mmHg 48%
    14:00 +35°C° 0.1 mm 4 m/S 757 mmHg 52%
    15:00 +34°C° 0.1 mm 3 m/S 757 mmHg 56%
    16:00 +33°C° 0.1 mm 3 m/S 757 mmHg 61%
    17:00 +31°C° 0.1 mm 3 m/S 757 mmHg 64%
    18:00 +31°C° 0.1 mm 3 m/S 758 mmHg 68%
    19:00 +30°C° 0.1 mm 3 m/S 758 mmHg 71%
    20:00 +29°C° 0.5 mm 3 m/S 759 mmHg 73%
    21:00 +29°C° 0.5 mm 2 m/S 759 mmHg 74%
    22:00 +29°C° 0.5 mm 2 m/S 760 mmHg 76%
    23:00 +29°C° 0.3 mm 2 m/S 760 mmHg 74%

    28 Juli, Sonntag

    Zeit Temperatur Niederschläge Wind Luftdruck Luftfeuchtigkeit
    00:00 +28°C° 0.3 mm 2 m/S 759 mmHg 73%
    01:00 +28°C° 0.3 mm 1 m/S 759 mmHg 71%
    02:00 +28°C° 0.6 mm 1 m/S 759 mmHg 75%
    03:00 +27°C° 0.6 mm 1 m/S 759 mmHg 78%
    04:00 +27°C° 0.6 mm 1 m/S 759 mmHg 82%
    05:00 +27°C° 0.1 mm 1 m/S 759 mmHg 80%
    06:00 +28°C° 0.1 mm 1 m/S 759 mmHg 77%
    07:00 +28°C° 0.1 mm 1 m/S 759 mmHg 75%
    08:00 +30°C° 0 mm 1 m/S 759 mmHg 67%
    09:00 +32°C° 0 mm 2 m/S 759 mmHg 58%
    10:00 +36°C° 0 mm 2 m/S 759 mmHg 50%
    11:00 +36°C° 0 mm 2 m/S 759 mmHg 49%
    12:00 +36°C° 0 mm 2 m/S 758 mmHg 48%
    13:00 +37°C° 0 mm 2 m/S 757 mmHg 47%
    14:00 +36°C° 0.2 mm 2 m/S 757 mmHg 49%
    15:00 +35°C° 0.2 mm 2 m/S 756 mmHg 52%
    16:00 +35°C° 0.2 mm 2 m/S 756 mmHg 54%
    17:00 +33°C° 0 mm 3 m/S 756 mmHg 59%
    18:00 +31°C° 0 mm 3 m/S 757 mmHg 64%
    19:00 +30°C° 0 mm 3 m/S 757 mmHg 69%
    20:00 +29°C° 0 mm 3 m/S 757 mmHg 71%
    21:00 +29°C° 0 mm 2 m/S 758 mmHg 74%
    22:00 +29°C° 0 mm 2 m/S 758 mmHg 76%
    23:00 +28°C° 0 mm 2 m/S 758 mmHg 77%
    Mehr zeigen